Home > Time Zones > World Clock > Weather > U.S.A. > Gary > Past weeks

Flag for U.S.A. Weather past 2 weeks in Gary, Indiana, U.S.A.

Now
87 °F

Sunny.


Feels Like: 85 °F
Forecast: 67 / 85 °F
Wind: 15 mph from Northwest

Location: Lansing Municipal Airport

Current Time: Jul 31, 2015 at 2:28:52 PM

Latest Report: Jul 31, 2015 at 1:55 PM


Visibility: 10 mi

Pressure: 29.97 "Hg

Humidity: 30%

Dew point: 52 °F

Location of GaryLocation

Historic Weather in Gary — Graph

°F

Gary temperature yesterday

Maximum temperature yesterday: 87 °F (at 2:35 PM)
Minimum temperature yesterday: 64 °F (at 5:55 AM)
Average temperature yesterday: 76 °F

Past Weeks' High & Low Weather Summary

 TemperatureHumidityPressure
High91 °F (Jul 17, 4:15 PM)93% (Jul 19, 5:55 AM)30.08 "Hg (Jul 19, 5:55 AM)
Low58 °F (Jul 22, 5:55 AM)16% (Jul 29, 4:15 PM)29.74 "Hg (Jul 17, 6:55 PM)
Average76 °F65%29.94 "Hg
* Reported Jul 16 1:15 PM — Jul 31 1:15 PM, Gary, Weather by CustomWeather, © 2015

Note: Actual official high and low records may vary slightly from our data, if they occured in-between our weather recording intervals... More about our weather records

Advertising

Gary weather history for previous 24 hours

 ConditionsComfort  
Time TempWeatherWind HumidityBarometerVisibility
1:15 PM
Fri, Jul 31
88 °FSunny.12 mph26%29.97 "Hg10 mi
12:50 PM86 °FSunny.9 mph35%29.98 "Hg10 mi
12:35 PM86 °FSunny.10 mph39%29.98 "Hg10 mi
12:15 PM85 °FSunny.9 mph43%29.99 "Hg10 mi
11:55 AM85 °FSunny.12 mph42%29.99 "Hg10 mi
11:15 AM84 °FPartly sunny.12 mph49%30.00 "Hg10 mi
10:55 AM83 °FBroken clouds.13 mph51%30.00 "Hg10 mi
10:35 AM83 °FScattered clouds.13 mph52%30.00 "Hg10 mi
10:15 AM83 °FSunny.14 mph56%30.01 "Hg10 mi
9:55 AM82 °FSunny.14 mph57%30.01 "Hg10 mi
9:15 AM77 °FOvercast.10 mph64%30.03 "Hg10 mi
8:55 AM75 °FMore clouds than sun.8 mph66%30.04 "Hg10 mi
8:35 AM75 °FOvercast.8 mph63%30.04 "Hg10 mi
8:15 AM75 °FPartly sunny.8 mph63%30.03 "Hg10 mi
7:55 AM73 °FSunny.7 mph66%30.03 "Hg10 mi
7:30 AM71 °FSunny.6 mph70%30.03 "Hg10 mi
7:15 AM70 °FSunny.5 mph76%30.03 "Hg10 mi
6:55 AM68 °FSunny.5 mph80%30.04 "Hg10 mi
6:35 AM64 °FSunny.3 mph89%30.03 "Hg10 mi
6:15 AM63 °FSunny.No wind89%30.03 "Hg10 mi
5:55 AM61 °FSunny.No wind92%30.02 "Hg10 mi
5:15 AM63 °FClear.No wind90%30.03 "Hg10 mi
4:55 AM62 °FClear.3 mph90%30.03 "Hg10 mi
4:35 AM63 °FClear.No wind89%30.03 "Hg10 mi
4:15 AM62 °FClear.No wind91%30.04 "Hg10 mi
3:55 AM63 °FClear.No wind90%30.04 "Hg10 mi
3:15 AM64 °FClear.No wind88%30.04 "Hg10 mi
2:55 AM63 °FClear.No wind89%30.04 "Hg10 mi
2:35 AM67 °FClear.3 mph81%30.04 "Hg10 mi
2:15 AM67 °FClear.3 mph81%30.04 "Hg10 mi
1:55 AM67 °FClear.3 mph83%30.04 "Hg10 mi
1:35 AM67 °FClear.5 mph80%30.04 "Hg10 mi
1:15 AM70 °FClear.3 mph75%30.03 "Hg10 mi
12:55 AM70 °FClear.5 mph76%30.03 "Hg10 mi
12:35 AM70 °FClear.3 mph76%30.03 "Hg10 mi
12:15 AM71 °FClear.5 mph74%30.03 "Hg10 mi
11:55 PM
Thu, Jul 30
70 °FClear.5 mph73%30.02 "Hg10 mi
11:35 PM72 °FClear.3 mph70%30.02 "Hg10 mi
11:15 PM72 °FClear.5 mph68%30.02 "Hg10 mi
10:55 PM72 °FClear.6 mph65%30.02 "Hg10 mi
10:35 PM72 °FClear.5 mph63%30.02 "Hg10 mi
10:15 PM75 °FClear.5 mph58%30.02 "Hg10 mi
9:50 PM75 °FClear.6 mph57%30.02 "Hg10 mi
9:35 PM76 °FClear.6 mph56%30.02 "Hg10 mi
9:15 PM76 °FClear.6 mph56%30.01 "Hg10 mi
8:55 PM77 °FClear.6 mph54%30.01 "Hg10 mi
8:35 PM78 °FClear.7 mph51%30.01 "Hg10 mi
8:15 PM80 °FClear.8 mph48%30.01 "Hg10 mi
7:55 PM81 °FSunny.9 mph46%30.01 "Hg10 mi
7:35 PM82 °FSunny.7 mph40%30.00 "Hg10 mi
7:15 PM83 °FSunny.6 mph37%30.01 "Hg10 mi
6:55 PM84 °FSunny.9 mph35%30.01 "Hg10 mi
6:35 PM84 °FSunny.10 mph34%30.00 "Hg10 mi
6:15 PM85 °FSunny.10 mph34%30.01 "Hg10 mi
5:55 PM85 °FSunny.12 mph33%30.01 "Hg10 mi
5:35 PM86 °FSunny.16 mph33%30.02 "Hg10 mi
4:15 PM87 °FSunny.9 mph28%30.03 "Hg10 mi
3:55 PM87 °FSunny.12 mph29%30.04 "Hg10 mi
3:35 PM87 °FSunny.7 mph29%30.04 "Hg10 mi
3:15 PM87 °FSunny.10 mph30%30.04 "Hg10 mi
2:55 PM87 °FScattered clouds.13 mph30%30.04 "Hg10 mi
2:35 PM87 °FSunny.15 mph30%30.04 "Hg10 mi
2:15 PM87 °FSunny.10 mph31%30.05 "Hg10 mi
Weather by CustomWeather, © 2015

See weather overviewHow to use our weather pages